Location: Nasgenstadt
(48.2786°N, 9.7553°E)
Time: 18:06:32
(UTC+02:00)

ISS - Pass Details

Date: 27 March 2017
Orbit: 401 x 409 km, 51.6° (Epoch: 29 April)

Event Time Altitude Azimuth Distance (km) Brightness Sun altitude
Rises 21:35:43 0° 222° (SW) 2,310 0.2 -18.5°
Reaches altitude 10° 21:37:53 10° 213° (SSW) 1,456 -1.0 -18.9°
Enters shadow 21:39:01 19° 202° (SSW) 1,049 -1.8 -19.0°
